Weather History for KNAK - May, 2013

Change the Weather History Date:

Sunday, May 12, 2013

  Actual Average (KBWI) Record (KBWI)
Temperature  
Mean Temperature 59 °F 62 °F  
Max Temperature 64 °F 73 °F 94 °F (1881)
Min Temperature 54 °F 51 °F 35 °F (1963)
Degree Days  
Heating Degree Days 6 5  
Month to date heating degree days 72  
Since 1 July heating degree days 4687  
Cooling Degree Days 0 2  
Month to date cooling degree days 14  
Year to date cooling degree days 28  
Growing Degree Days 9 (Base 50)    
Moisture  
Dew Point 42 °F    
Average Humidity 54    
Maximum Humidity 100    
Minimum Humidity 29    
Precipitation  
Precipitation 0.00 in 0.13 in 2.20 in (2008)
Month to date precipitation 1.44  
Year to date precipitation 14.48  
Snow  
Snow 0.00 in 0.00 in - ()
Month to date snowfall 0.0  
Since 1 July snowfall 20.1  
Snow Depth -    
Sea Level Pressure  
Sea Level Pressure 29.86 in    
Wind  
Wind Speed 8 mph (WNW)    
Max Wind Speed 18 mph    
Max Gust Speed 26 mph    
Visibility 10 miles    
Events Rain    
T = Trace of Precipitation, MM = Missing Value Source: NWS Daily Summary

Daily Weather History Graph

Daily Weather History Graph

Search for Another Location

Airport or City:

Trip Planner

Search our weather history database for the weather conditions in past years. The results will help you decide how hot, cold, wet, or windy it might be!

Date:

Astronomy

May. 12, 2013 Rise Set
Actual Time 5:55 AM EDT 8:09 PM EDT
Civil Twilight 5:25 AM EDT 8:39 PM EDT
Nautical Twilight 4:49 AM EDT 9:16 PM EDT
Astronomical Twilight 4:09 AM EDT 9:56 PM EDT
Moon 7:49 AM EDT (5/12) 10:34 PM EDT (5/12)
Length of Visible Light 15h 13m
Length of Day
14h 13m
Waxing Crescent, 6% of the Moon is Illuminated
May 12
Waxing Crescent
May 18
First Quarter
May 25
Full
May 31
Last Quarter
Jun 8
New

Hourly Weather History & Observations

Time (EDT) Temp. Dew Point Humidity Pressure Visibility Wind Dir Wind Speed Gust Speed Precip Events Conditions
12:54 AM 64.0 °F 64.0 °F 100% 29.77 in 5.0 mi WSW 4.6 mph - N/A Rain Light Rain
1:54 AM 64.0 °F 63.0 °F 96% 29.75 in 10.0 mi WNW 4.6 mph - N/A   Overcast
2:54 AM 63.0 °F 62.1 °F 97% 29.75 in 10.0 mi WNW 3.5 mph - N/A   Mostly Cloudy
3:54 AM 62.1 °F 57.9 °F 86% 29.76 in 10.0 mi West 4.6 mph - N/A   Overcast
4:54 AM 61.0 °F 55.0 °F 81% 29.77 in 10.0 mi WNW 6.9 mph - 0.00 in Rain Light Rain
5:54 AM 61.0 °F 51.1 °F 70% 29.79 in 10.0 mi WNW 8.1 mph 16.1 mph 0.00 in   Overcast
6:54 AM 60.1 °F 48.9 °F 67% 29.80 in 10.0 mi NW 5.8 mph - N/A   Overcast
7:54 AM 60.1 °F 51.1 °F 72% 29.79 in 10.0 mi West 5.8 mph - N/A   Partly Cloudy
8:54 AM 62.1 °F 50.0 °F 65% 29.82 in 10.0 mi WNW 10.4 mph 18.4 mph N/A   Clear
9:54 AM 62.1 °F 41.0 °F 46% 29.83 in 10.0 mi WNW 12.7 mph 19.6 mph N/A   Clear
10:54 AM 61.0 °F 39.9 °F 46% 29.84 in 10.0 mi WNW 15.0 mph 26.5 mph N/A   Clear
11:54 AM 61.0 °F 43.0 °F 52% 29.84 in 10.0 mi NW 13.8 mph 25.3 mph N/A   Partly Cloudy
12:54 PM 62.1 °F 41.0 °F 46% 29.85 in 10.0 mi NW 15.0 mph 23.0 mph N/A   Scattered Clouds
1:54 PM 62.1 °F 34.0 °F 35% 29.86 in 10.0 mi NW 13.8 mph 20.7 mph N/A   Clear
2:54 PM 62.1 °F 34.0 °F 35% 29.87 in 10.0 mi NW 10.4 mph 21.9 mph N/A   Clear
3:54 PM 63.0 °F 30.9 °F 30% 29.86 in 10.0 mi NW 17.3 mph 23.0 mph N/A   Clear
4:54 PM 63.0 °F 30.0 °F 29% 29.87 in 10.0 mi NW 18.4 mph 24.2 mph N/A   Partly Cloudy
5:54 PM 63.0 °F 32.0 °F 31% 29.89 in 10.0 mi WNW 13.8 mph 21.9 mph N/A   Clear
6:54 PM 62.1 °F 30.9 °F 31% 29.91 in 10.0 mi WNW 13.8 mph 23.0 mph N/A   Clear
7:54 PM 60.1 °F 30.9 °F 33% 29.93 in 10.0 mi WNW 10.4 mph 18.4 mph N/A   Clear
8:54 PM 59.0 °F 32.0 °F 36% 29.96 in 10.0 mi NW 12.7 mph 23.0 mph N/A   Clear
9:54 PM 57.0 °F 32.0 °F 39% 30.01 in 10.0 mi WNW 4.6 mph - N/A   Clear
10:54 PM 54.0 °F 30.0 °F 40% 30.03 in 10.0 mi West 6.9 mph - N/A   Partly Cloudy
11:54 PM 54.0 °F 30.9 °F 41% 30.04 in 10.0 mi WNW 8.1 mph - N/A   Clear